[[{"header":{"parameterUnit":"m.s-1","parameterCategory":1,"la1":30.2991,"la2":30.254,"lo1":-89.0895,"lo2":-89.0444,"dy":0.0017,"dx":0.0017,"nx":28,"ny":28,"refTime":"2025-03-29T03:00:00:Z","depth":0,"parameterNumber":2,"parameterNumberName":"U-component_of_WINDS"},"data":[0,0,0,0,0,0,0,0,0,0,0,0,0,0,0,0,0,0,0,0,0,0,0,0,0,0,0,0,0,0,0,0,0,0,0,0,0,0,0,0,0,0,0,0,0,0,0,0,0,0,0,0,0,0,0,0,0,0,-5.9254,-5.9256,0,-5.9501,-5.9503,-5.9506,-5.956,-5.9558,-5.9557,-5.9555,-5.9807,-5.9815,-5.9823,0,0,0,0,0,0,0,0,0,0,0,0,0,-5.8829,-5.8836,-5.9253,-5.9256,-5.926,-5.95,-5.9503,-5.9507,-5.956,-5.9558,-5.9556,-5.9554,-5.9804,-5.9814,-5.9824,0,0,0,0,0,0,0,0,0,0,0,0,0,-5.9038,-5.8839,-5.9253,-5.9315,-5.9323,-5.9499,-5.9504,-5.9508,-5.9561,-5.9558,-5.9556,-5.9553,-5.9801,-5.9813,-5.9825,-5.9956,0,0,-5.9864,-5.9869,0,0,0,0,0,0,0,0,-5.9026,-5.9054,-5.9303,-5.9311,-5.9321,-5.9497,-5.9446,-5.9658,-5.9562,-5.9471,-5.9555,-5.9552,-5.9706,-5.9726,-5.9778,-5.9968,-5.9979,-5.9865,-5.9872,-5.9878,-5.9881,0,0,0,0,0,0,0,-5.9012,-5.9043,-5.9351,-5.9307,-5.9317,-5.9331,-5.9358,-5.9487,-5.96,-5.9478,-5.9483,-5.9512,-5.971,-5.9766,-5.9784,-5.9982,-5.9864,-5.9876,-5.9883,-5.9888,-6.0293,-6.0296,0,0,0,0,0,0,-5.8986,-5.9031,-5.9343,-5.9359,-5.9164,-5.9341,-5.9371,-5.9443,-5.9599,-5.962,-5.9514,-5.9513,-5.9746,-5.977,-5.9793,-5.9956,-5.9878,-5.9889,-5.9897,-6.029,-6.0294,-6.0297,0,0,0,0,0,0,-5.8977,-5.9014,-5.9333,-5.9196,-5.9238,-5.9351,-5.9432,-5.9449,-5.9505,-5.9625,-5.9646,-5.955,-5.9745,-5.9776,-5.9916,-5.9966,-5.9895,-5.9906,-6.0286,-6.0291,-6.0296,-6.0283,0,0,0,0,0,0,-5.8964,-5.901,-5.906,-5.9197,-5.9245,-5.9451,-5.9435,-5.9456,-5.9527,-5.9528,-5.9665,-5.9685,-5.9745,-5.9897,-5.9928,-5.9982,-5.9916,-6.0282,-6.0288,-6.0294,-6.0279,-6.0287,-6.0293,0,0,0,0,0,-5.8949,-5.9047,-5.9062,-5.91,-5.931,-5.9454,-5.9481,-5.9549,-5.953,-5.9582,-5.966,-5.968,-5.9956,-5.991,-5.9946,-6.0005,-6.0279,-6.0286,-6.0294,-6.0276,-6.0285,-6.0293,0,0,0,0,0,0,-5.8912,-5.9065,-5.9085,-5.9229,-5.9328,-5.9462,-5.9529,-5.9556,-5.9662,-5.9659,-5.9738,-5.9769,-5.9903,-5.9969,-5.9915,-6.014,-6.0117,-6.0132,-6.0091,-6.0101,-6.0108,-6.0088,-5.9927,0,0,0,0,0,-5.8921,-5.9024,-5.9153,-5.9268,-5.9317,-5.9415,-5.948,-5.9524,-5.9629,-5.967,-5.9758,-5.986,-5.9969,-6.0039,-6.0147,-6.0291,-6.0321,-6.0349,-6.0356,-6.0361,-6.0371,-6.0452,-6.0466,-6.0321,-6.0321,-6.0321,0,0,-5.8939,-5.9036,-5.9097,-5.9263,-5.9345,-5.945,-5.9449,-5.9561,-5.9639,-5.9687,-5.9824,-5.9893,-6.0011,-6.0153,-6.022,-6.0212,-6.0419,-6.037,-6.0373,-6.0381,-6.0461,-6.0475,-6.0487,-6.0326,-6.0325,-6.0324,0,0,-5.9027,-5.9111,-5.9216,-5.9299,-5.9423,-5.9488,-5.9513,-5.9644,-5.9691,-5.9831,-5.9869,-5.9965,-6.0152,-6.0234,-6.0301,-6.0423,-6.0445,-6.0456,-6.0491,-6.0569,-6.058,-6.059,-6.0632,-6.0647,-6.0467,-6.0467,-6.0467,0,-5.9034,-5.9194,-5.9267,-5.9377,-5.9449,-5.9499,-5.9606,-5.9682,-5.9835,-5.9884,-5.9873,-6.0109,-6.0193,-6.0355,-6.0385,-6.0438,-6.0469,-6.0439,-6.0573,-6.0584,-6.0595,-6.0636,-6.0651,-6.0468,-6.0468,-6.0468,-6.0468,0,-5.9196,-5.9307,-5.9377,-5.9523,-5.9604,-5.9712,-5.9801,-5.9874,-5.9913,-5.9979,-6.012,-6.0223,-6.0352,-6.0394,-6.0432,-6.0562,-6.0553,-6.0557,-6.0534,-6.0607,-6.0647,-6.0664,-6.0468,-6.0468,-6.0468,-6.0468,0,0,-5.9263,-5.9451,-5.9475,-5.9542,-5.9684,-5.9771,-5.9882,-6.0009,-6.007,-6.0175,-6.0269,-6.0428,-6.0432,-6.0508,-6.0556,-6.0625,-6.0714,-6.0621,-6.0625,-6.0632,-6.0863,-6.0857,-6.0874,-6.0731,-6.0735,-6.0737,-6.0852,0,-5.9366,-5.9564,-5.9634,-5.9798,-5.9901,-5.9952,-6.0049,-6.0147,-6.0213,-6.031,-6.0383,-6.0494,-6.0492,-6.0538,-6.0609,-6.0688,-6.0761,-6.0681,-6.0818,-6.0822,-6.0784,-6.0895,-6.0889,-6.0991,-6.0868,-6.0871,-6.0873,0,-5.9511,-5.9618,-5.9792,-5.9922,-5.9968,-6.0054,-6.0176,-6.0269,-6.0382,-6.0425,-6.0511,-6.0555,-6.0673,-6.0647,-6.0811,-6.0755,-6.0816,-6.0864,-6.087,-6.0882,-6.0849,-6.0908,-6.1026,-6.104,-6.0898,-6.0896,-6.0894,0,-5.9539,-5.9728,-5.9856,-5.9913,-6.0068,-6.0127,-6.0195,-6.0305,-6.0377,-6.0485,-6.0533,-6.0653,-6.0718,-6.0811,-6.0886,-6.086,-6.1043,-6.1023,-6.1081,-6.1079,-6.1114,-6.111,-6.1241,-6.1158,-6.1158,-6.1158,-6.1158,0,-5.9645,-5.9748,-5.9871,-5.9949,-6.0068,-6.0149,-6.0264,-6.0335,-6.0433,-6.0527,-6.058,-6.0666,-6.0762,-6.0862,-6.0923,-6.1048,-6.1078,-6.1116,-6.113,-6.1109,-6.1104,-6.1148,-6.1142,-6.1162,-6.1161,-6.116,-6.116,0,-5.9694,-5.9781,-5.9924,-6.0061,-6.0098,-6.0179,-6.0296,-6.0374,-6.0444,-6.0562,-6.0594,-6.0703,-6.0823,-6.0909,-6.1064,-6.1105,-6.1239,-6.1255,-6.1201,-6.1207,-6.126,-6.1253,-6.1421,-6.1446,-6.1349,-6.135,-6.135,0,-5.9754,-5.9836,-5.9981,-6.0048,-6.0116,-6.0223,-6.0297,-6.0381,-6.0456,-6.0592,-6.0654,-6.0778,-6.0881,-6.1071,-6.1164,-6.1283,-6.13,-6.1351,-6.1318,-6.1295,-6.1298,-6.1291,-6.1299,-6.1354,-6.1355,-6.1355,-6.1356,0,-5.985,-5.989,-5.9995,-6.0116,-6.0204,-6.0303,-6.0403,-6.0454,-6.0556,-6.0638,-6.0762,-6.0842,-6.1001,-6.1123,-6.1252,-6.1322,-6.1356,-6.1366,-6.1386,-6.1364,-6.1328,-6.1346,-6.1211,-6.1361,-6.136,-6.136,-6.136,-6.136,-5.9906,-5.9981,-6.0095,-6.0211,-6.0295,-6.0388,-6.0468,-6.0549,-6.0654,-6.0789,-6.0833,-6.0961,-6.1074,-6.125,-6.1322,-6.1424,-6.1421,-6.145,-6.1456,-6.1461,-6.1459,-6.1315,-6.1448,-6.1448,-6.1448,-6.1448,-6.1448,0,-6.0003,-6.008,-6.0186,-6.0324,-6.0416,-6.0442,-6.0554,-6.0629,-6.0741,-6.0843,-6.0944,-6.1087,-6.1206,-6.131,-6.1434,-6.1495,-6.1514,-6.1525,-6.152,-6.1535,-6.1455,-6.1425,-6.1508,-6.1508,-6.1508,-6.1508,-6.1508,-6.1508,-6.0064,-6.0191,-6.0245,-6.0415,-6.0492,-6.0617,-6.0679,-6.0765,-6.0848,-6.1004,-6.1104,-6.1171,-6.1275,-6.1407,-6.1518,-6.1546,-6.1588,-6.1595,-6.1625,-6.1548,-6.1541,-6.1534,-6.1506,-6.1604,-6.1604,-6.1696,-6.1697,-6.1698]},{"header":{"parameterUnit":"m.s-1","parameterCategory":1,"la1":30.2991,"la2":30.254,"lo1":-89.0895,"lo2":-89.0444,"dy":0.0017,"dx":0.0017,"nx":28,"ny":28,"refTime":"2025-03-29T03:00:00:Z","depth":0,"parameterNumber":3,"parameterNumberName":"V-component_of_WINDS"},"data":[0,0,0,0,0,0,0,0,0,0,0,0,0,0,0,0,0,0,0,0,0,0,0,0,0,0,0,0,0,0,0,0,0,0,0,0,0,0,0,0,0,0,0,0,0,0,0,0,0,0,0,0,0,0,0,0,0,0,4.3005,4.3006,0,4.3097,4.3098,4.31,4.3116,4.3115,4.3114,4.3114,4.3201,4.3204,4.3207,0,0,0,0,0,0,0,0,0,0,0,0,0,4.2837,4.284,4.3005,4.3006,4.3007,4.3097,4.3099,4.31,4.3116,4.3115,4.3114,4.3113,4.32,4.3204,4.3208,0,0,0,0,0,0,0,0,0,0,0,0,0,4.2918,4.2841,4.3005,4.3026,4.3029,4.3097,4.3099,4.31,4.3116,4.3115,4.3114,4.3113,4.3199,4.3204,4.3208,4.3258,0,0,4.3222,4.3224,0,0,0,0,0,0,0,0,4.2913,4.2924,4.3022,4.3025,4.3028,4.3094,4.3072,4.3153,4.3117,4.3083,4.3114,4.3112,4.3166,4.3173,4.3193,4.3263,4.3266,4.3222,4.3225,4.3227,4.3228,0,0,0,0,0,0,0,4.2908,4.292,4.3041,4.3023,4.3027,4.303,4.304,4.3087,4.3129,4.3086,4.3087,4.3098,4.3168,4.3188,4.3195,4.3268,4.3222,4.3226,4.3229,4.3231,4.3386,4.3387,0,0,0,0,0,0,4.2899,4.2915,4.3038,4.3044,4.2967,4.3034,4.3045,4.3074,4.3129,4.3136,4.3099,4.3099,4.3181,4.319,4.3198,4.3263,4.3227,4.3231,4.3234,4.3384,4.3386,4.3388,0,0,0,0,0,0,4.2895,4.291,4.3035,4.298,4.2996,4.3038,4.307,4.3076,4.3097,4.3139,4.3146,4.3113,4.3181,4.3192,4.3244,4.3266,4.3233,4.3237,4.3383,4.3385,4.3387,4.339,0,0,0,0,0,0,4.2891,4.2908,4.2929,4.2981,4.2999,4.3081,4.3071,4.3079,4.3106,4.3106,4.3154,4.3161,4.3181,4.3238,4.3249,4.3271,4.3241,4.3381,4.3384,4.3386,4.3388,4.3392,4.3396,0,0,0,0,0,4.2885,4.2924,4.293,4.2945,4.3026,4.3082,4.3092,4.3116,4.3108,4.3128,4.3156,4.3159,4.3262,4.3243,4.3256,4.328,4.338,4.3383,4.3386,4.3387,4.3392,4.3395,0,0,0,0,0,0,4.287,4.2931,4.2938,4.2996,4.3034,4.3085,4.3111,4.312,4.3159,4.3157,4.3183,4.3194,4.3246,4.3268,4.3246,4.3333,4.332,4.3326,4.3316,4.3321,4.3324,4.3318,4.3245,0,0,0,0,0,4.2875,4.2917,4.2967,4.3013,4.3032,4.3068,4.3093,4.3109,4.3148,4.3164,4.3195,4.3231,4.3272,4.3298,4.3337,4.3392,4.3403,4.3415,4.3419,4.3421,4.3426,4.3458,4.3465,4.3398,4.3398,4.3398,0,0,4.2882,4.2921,4.2945,4.3011,4.3042,4.3085,4.3081,4.3125,4.3156,4.317,4.3222,4.3247,4.3289,4.3344,4.3369,4.3364,4.3447,4.3425,4.3427,4.343,4.3462,4.3469,4.3474,4.34,4.34,4.3399,0,0,4.2918,4.2952,4.2995,4.3028,4.3077,4.3101,4.3112,4.3162,4.3179,4.3233,4.3245,4.3281,4.335,4.3381,4.3405,4.3457,4.3462,4.3469,4.3487,4.3518,4.3523,4.3528,4.3547,4.3554,4.3473,4.3473,4.3473,0,4.2921,4.2987,4.3015,4.306,4.3089,4.3107,4.3151,4.318,4.3238,4.3257,4.3251,4.334,4.3369,4.3432,4.3446,4.3464,4.3477,4.3463,4.3521,4.3526,4.3531,4.3549,4.3556,4.3474,4.3474,4.3474,4.3474,0,4.2989,4.3034,4.3063,4.3123,4.3155,4.3198,4.3233,4.3262,4.3275,4.33,4.3356,4.3392,4.3441,4.3457,4.3469,4.3522,4.3518,4.3516,4.3503,4.3537,4.3555,4.3562,4.3475,4.3474,4.3474,4.3474,0,0,4.3015,4.3094,4.3104,4.3132,4.3189,4.3224,4.3269,4.3319,4.3344,4.3384,4.3422,4.3482,4.3482,4.351,4.3525,4.3553,4.3593,4.3548,4.355,4.3556,4.3655,4.3656,4.3664,4.3598,4.3599,4.36,4.3652,0,4.3059,4.3143,4.3171,4.3239,4.3283,4.3301,4.3341,4.3379,4.3404,4.3443,4.347,4.3512,4.3508,4.3526,4.3554,4.3582,4.3613,4.3579,4.3632,4.3634,4.3621,4.3673,4.3674,4.3721,4.3659,4.366,4.3661,0,4.312,4.3165,4.3239,4.3294,4.3312,4.3348,4.3397,4.3435,4.3479,4.3495,4.3528,4.3543,4.359,4.3576,4.3641,4.3617,4.3641,4.3658,4.366,4.3666,4.3649,4.368,4.3737,4.3744,4.3672,4.3671,4.3671,0,4.3134,4.3212,4.3268,4.3291,4.3356,4.338,4.3408,4.3451,4.3481,4.3523,4.3543,4.3589,4.3614,4.365,4.3677,4.3664,4.374,4.3727,4.3754,4.3753,4.3768,4.3767,4.3829,4.3783,4.3783,4.3783,4.3783,0,4.3179,4.3223,4.3275,4.3309,4.336,4.3392,4.3441,4.3469,4.3508,4.3547,4.3565,4.36,4.3634,4.3674,4.3695,4.3746,4.3757,4.3771,4.3776,4.3769,4.3768,4.3785,4.3782,4.3785,4.3784,4.3784,4.3784,0,4.3202,4.3239,4.33,4.3358,4.3374,4.3408,4.3457,4.349,4.3517,4.3566,4.3579,4.3621,4.3669,4.37,4.376,4.3774,4.3831,4.3834,4.3817,4.3819,4.3844,4.3842,4.3919,4.3932,4.3877,4.3878,4.3878,0,4.3229,4.3264,4.3327,4.3356,4.3385,4.343,4.3462,4.3495,4.3527,4.3582,4.3608,4.3658,4.37,4.3776,4.381,4.3857,4.3862,4.3886,4.3869,4.3862,4.3863,4.3861,4.3865,4.3889,4.3889,4.3889,4.389,0,4.3272,4.329,4.3335,4.3389,4.3427,4.3469,4.3511,4.3533,4.3574,4.3608,4.3659,4.3692,4.3756,4.3805,4.3856,4.3882,4.3893,4.3896,4.3904,4.3898,4.3886,4.3894,4.3825,4.3893,4.3893,4.3892,4.3892,4.3892,4.3298,4.3332,4.3382,4.3433,4.347,4.351,4.3545,4.3578,4.3622,4.3679,4.3695,4.3749,4.3794,4.3863,4.3891,4.3933,4.3929,4.3942,4.3945,4.3947,4.3948,4.388,4.3942,4.3942,4.3942,4.3941,4.3941,0,4.3344,4.3378,4.3425,4.3486,4.3526,4.3536,4.3584,4.3617,4.3665,4.3707,4.3749,4.3809,4.3858,4.3898,4.3948,4.3973,4.398,4.3985,4.3984,4.399,4.3948,4.3936,4.398,4.398,4.398,4.398,4.398,4.398,4.3372,4.343,4.3454,4.353,4.3563,4.3619,4.3645,4.3682,4.3717,4.3784,4.3826,4.3853,4.3894,4.3948,4.3993,4.4003,4.4021,4.4026,4.4037,4.3997,4.3992,4.3988,4.3977,4.4029,4.4029,4.4076,4.4076,4.4076]}]]